Weather History for Wolf Point, MT

Change the Weather History Date:

Monday, February 25, 2013

  Actual Average Record
Temperature  
Mean Temperature 32 °F -  
Max Temperature 45 °F 34 °F 52 °F (2005)
Min Temperature 18 °F 9 °F -32 °F (2011)
Degree Days  
Heating Degree Days 33    
Cooling Degree Days 0    
Moisture  
Dew Point 23 °F    
Average Humidity 75    
Maximum Humidity 92    
Minimum Humidity 43    
Precipitation  
Precipitation 0.00 in 0.01 in 0.01 in (2001)
Month to date precipitation 0.09 0.17  
Year to date precipitation 0.20 0.48  
Sea Level Pressure  
Sea Level Pressure 29.90 in    
Wind  
Wind Speed 2 mph (East)    
Max Wind Speed 6 mph    
Max Gust Speed -    
Visibility 10 miles    
Events      
T = Trace of Precipitation, MM = Missing Value Source: NWS Daily Summary

Daily Weather History Graph

Daily Weather History Graph

Search for Another Location

Airport:

Trip Planner

Search our weather history database for the weather conditions in past years. The results will help you decide how hot, cold, wet, or windy it might be!

Date:

Astronomy

Feb. 25, 2013 Rise Set
Actual Time 6:50 AM MST 5:40 PM MST
Civil Twilight 6:19 AM MST 6:12 PM MST
Nautical Twilight 5:43 AM MST 6:48 PM MST
Astronomical Twilight 5:07 AM MST 7:24 PM MST
Moon 6:02 PM MST (2/25) 6:19 AM MST (2/25)
Length of Visible Light 11h 53m
Length of Day
10h 50m
Full, 100% of the Moon is Illuminated
Feb 25
Full
Feb 25
Full
Mar 4
Last Quarter
Mar 11
New
Mar 19
First Quarter

Hourly Weather History & Observations

Time (MST) Temp. Windchill Dew Point Humidity Pressure Visibility Wind Dir Wind Speed Gust Speed Precip Events Conditions
12:53 AM 28.9 °F 22.8 °F 21.0 °F 72% 30.00 in 10.0 mi SSW 5.8 mph - N/A   Clear
1:53 AM 23.0 °F - 19.0 °F 85% 30.00 in 10.0 mi Calm Calm - N/A   Clear
2:53 AM 23.0 °F 18.4 °F 19.0 °F 85% 29.98 in 10.0 mi SW 3.5 mph - N/A   Clear
3:53 AM 21.9 °F - 18.0 °F 85% 29.97 in 10.0 mi Calm Calm - N/A   Clear
4:53 AM 19.0 °F - 17.1 °F 92% 29.97 in 10.0 mi Calm Calm - N/A   Clear
5:53 AM 19.9 °F - 17.1 °F 89% 29.97 in 10.0 mi Calm Calm - N/A   Clear
6:53 AM 19.0 °F 13.9 °F 16.0 °F 88% 29.96 in 10.0 mi West 3.5 mph - N/A   Clear
7:53 AM 21.9 °F - 18.0 °F 85% 29.95 in 10.0 mi Calm Calm - N/A   Clear
8:53 AM 27.0 °F - 21.9 °F 81% 29.93 in 10.0 mi Calm Calm - N/A   Clear
9:53 AM 34.0 °F - 23.0 °F 64% 29.91 in 10.0 mi Calm Calm - N/A   Clear
10:53 AM 36.0 °F - 24.1 °F 62% 29.90 in 10.0 mi Calm Calm - N/A   Clear
11:53 AM 39.0 °F - 24.1 °F 55% 29.87 in 10.0 mi Calm Calm - N/A   Clear
12:53 PM 42.1 °F 40.2 °F 24.1 °F 49% 29.85 in 10.0 mi Variable 3.5 mph - N/A   Clear
1:53 PM 44.1 °F - 24.1 °F 45% 29.84 in 10.0 mi Calm Calm - N/A   Clear
2:53 PM 44.1 °F - 23.0 °F 43% 29.83 in 10.0 mi Calm Calm - N/A   Clear
3:53 PM 42.1 °F 38.4 °F 27.0 °F 55% 29.83 in 10.0 mi ESE 5.8 mph - N/A   Clear
4:53 PM 39.0 °F 35.7 °F 28.0 °F 65% 29.84 in 10.0 mi East 4.6 mph - N/A   Clear
5:53 PM 33.1 °F 28.7 °F 28.0 °F 82% 29.83 in 10.0 mi ENE 4.6 mph - N/A   Clear
6:53 PM 30.9 °F 25.2 °F 26.1 °F 82% 29.84 in 10.0 mi NNE 5.8 mph - N/A   Clear
7:53 PM 30.0 °F 26.5 °F 25.0 °F 82% 29.84 in 10.0 mi NE 3.5 mph - N/A   Clear
8:53 PM 28.0 °F - 25.0 °F 88% 29.84 in 10.0 mi Calm Calm - N/A   Clear
9:53 PM 28.0 °F - 25.0 °F 88% 29.84 in 10.0 mi Calm Calm - N/A   Clear
10:53 PM 28.9 °F - 26.1 °F 89% 29.85 in 10.0 mi Calm Calm - N/A   Mostly Cloudy
11:53 PM 28.9 °F - 26.1 °F 89% 29.85 in 10.0 mi Calm Calm - N/A   Overcast